Dewpoint
56 56 55 55 53 52 51 49 48 49 50 50 51 53 54 54 54 54 54 54 54 53 54 54 54 53 54 54 55 55 54 54 51 51 52 52 52 52 53 52 53 52 52
55 56 56 55 54 53 51 51 50 48 49 49 50 51 52 53 53 53 52 52 53 53 53 53 53 53 53 53 54 53 54 54 53 50 51 53 51 51 52 50 49 49 49
54 55 55 56 55 53 53 52 51 50 49 49 49 49 50 51 51 51 52 51 51 53 53 53 52 53 53 53 53 53 53 53 53 53 51 52 53 49 49 49 47 48 48
55 53 54 54 55 55 54 54 53 52 51 50 49 49 49 49 50 50 51 50 51 51 51 52 52 52 53 52 52 53 53 52 52 52 52 53 51 49 49 48 44 45 46
54 54 53 54 54 54 56 55 55 54 52 51 50 49 49 49 49 49 50 49 50 50 50 51 51 50 48 50 52 52 53 52 52 52 52 52 50 42 47 48 49 48 41
54 54 54 54 54 54 54 56 55 55 55 53 51 51 50 49 45 42 46 48 48 48 49 49 50 46 46 44 45 45 49 52 52 52 51 51 50 50 49 48 46 38 39
54 55 55 55 55 55 55 55 55 56 56 55 54 52 51 51 44 42 41 47 47 48 48 49 49 50 46 50 45 42 40 37 38 51 52 52 51 51 49 40 36 36 34
52 53 53 55 56 56 55 55 55 55 55 55 55 55 54 53 45 43 40 46 47 48 49 49 50 50 51 50 50 44 39 36 37 38 41 40 37 38 40 38 35 33 33
46 46 47 48 51 54 56 56 56 55 55 55 55 56 56 55 46 45 44 49 49 50 51 51 52 51 48 44 45 38 33 32 35 35 35 35 35 35 36 35 33 33 30
42 42 42 43 46 47 48 53 56 56 56 56 56 56 52 56 48 44 45 53 52 51 51 41 37 45 44 40 48 39 33 30 30 30 30 30 30 31 31 33 32 30 29
39 38 37 37 39 40 43 44 45 49 56 55 53 40 37 35 37 38 42 50 51 49 43 33 33 35 36 36 37 37 34 30 29 28 28 28 29 29 29 29 29 29 28
35 34 33 32 33 35 37 38 39 41 41 39 36 34 33 33 34 33 35 37 39 35 31 32 32 32 32 31 30 31 30 29 29 28 27 25 25 26 27 28 28 28 27
33 31 30 29 30 30 31 32 35 37 36 33 32 30 29 30 31 31 32 32 32 31 32 31 31 30 30 29 30 29 29 28 27 25 24 24 25 27 28 27 28 28 28
32 30 28 28 28 29 29 29 30 32 32 32 32 30 29 28 27 27 27 27 28 27 27 27 26 26 26 26 26 26 26 26 25 24 24 24 24 22 22 23 21 21 21
30 30 28 28 27 27 28 29 29 30 30 28 28 28 26 26 27 28 27 26 26 27 27 26 25 24 23 23 23 23 23 23 22 22 21 21 20 20 19 19 17 17 15
28 28 28 27 26 25 25 26 30 30 31 31 30 28 29 30 30 31 31 30 30 28 25 23 22 22 20 20 20 20 21 20 20 19 19 18 17 16 15 14 14 13 11
27 27 26 26 26 25 24 24 23 25 27 30 30 31 31 30 29 29 28 28 28 25 22 21 20 20 19 19 18 17 16 18 18 16 15 14 14 13 12 11 10 8 7
27 27 26 26 25 24 24 23 20 19 18 18 24 25 27 26 26 26 25 22 20 20 19 18 17 18 18 17 16 16 15 14 13 12 11 10 11 10 9 7 6 6 5
24 24 24 24 24 23 22 21 20 18 17 17 18 18 20 22 22 22 21 17 16 15 16 15 15 15 14 13 12 12 11 10 9 8 6 5 1 6 4 5 5 5 4
22 22 21 21 20 19 19 19 17 15 14 14 13 14 16 14 12 12 13 14 13 13 13 12 12 11 11 11 10 9 8 8 6 4 -4 -3 -3 3 2 1 1 -0 3
19 19 19 19 19 18 17 16 16 14 13 12 13 14 13 11 10 9 9 9 10 9 8 8 7 7 7 6 5 3 2 -1 1 -1 -3 -4 -13 -7 -1 -1 -2 -1 2
19 18 18 17 17 16 16 15 14 13 13 11 11 10 9 9 8 6 5 4 6 6 5 3 3 3 2 2 1 -4 -7 -10 -11 -11 -9 -8 -6 -7 -7 -7 -9 -11 -5
17 16 16 15 15 15 14 13 12 11 10 8 8 6 5 3 2 3 1 -1 2 2 2 -0 -2 -2 -2 -4 -3 -5 -7 -11 -14 -17 -18 -18 -11 -12 -16 -13 -10 -11 -10
15 14 13 12 12 11 10 9 9 9 8 6 6 5 2 -1 -4 -5 -5 -5 -3 -4 -6 -6 -3 -3 -2 -9 -8 -7 -6 -14 -11 -14 -20 -19 -14 -10 -15 -12 -10 -12 -11
11 10 9 8 8 7 6 5 4 3 3 3 1 3 0 -5 -7 -12 -9 -5 -3 -6 -7 -11 -11 -10 -10 -12 -11 -11 -13 -12 -17 -15 -18 -17 -19 -19 -15 -12 -14 -10 -13
8 7 6 6 4 3 3 0 -1 -0 -1 -2 -5 -7 -9 -11 -13 -19 -15 -11 -12 -11 -11 -10 -10 -11 -11 -10 -10 -11 -12 -12 -16 -15 -21 -14 -17 -17 -17 -17 -13 -13 -6
Lifted_Index
3 3 3 3 3 3 3 3 2 2 3 3 4 5 5 5 5 5 4 4 4 4 4 3 3 3 3 3 3 3 3 3 3 2 2 2 2 2 2 2 2 2 2
2 2 3 3 3 3 3 2 2 2 2 3 4 4 5 5 5 5 5 4 4 4 4 3 3 3 3 3 3 3 3 3 3 3 2 2 2 2 2 2 2 2 2
0 1 2 2 2 3 3 2 2 2 2 2 3 3 4 4 5 5 5 4 4 4 3 3 3 3 3 3 3 3 3 3 3 3 2 2 2 2 2 2 2 2 2
-1 -1 0 1 2 2 2 2 2 2 2 2 2 2 3 3 4 4 4 4 4 4 4 3 3 3 3 3 3 3 2 2 2 2 2 2 2 2 2 2 2 2 2
-2 -2 -1 -0 1 1 1 1 1 1 1 1 1 2 2 2 2 3 3 4 4 4 4 4 3 3 3 3 3 2 2 2 2 2 2 2 2 1 1 1 1 2 2
-2 -2 -2 -1 -1 -0 0 0 0 1 1 1 1 1 1 1 1 1 1 2 2 3 3 3 3 3 3 3 2 2 2 2 2 1 2 2 1 1 1 1 1 2 2
-2 -2 -2 -2 -1 -1 -1 -1 -1 -0 -0 0 0 0 0 0 0 0 -0 0 1 1 2 2 2 3 2 2 2 1 1 1 1 1 1 1 1 1 1 2 2 2 2
-1 -1 -1 -1 -1 -1 -1 -1 -1 -1 -1 -1 -1 -1 -0 -0 -0 -0 -0 -0 0 0 1 1 1 1 1 1 1 1 1 1 0 0 0 0 1 1 2 2 2 3 3
0 -0 -0 -1 -1 -1 -1 -1 -1 -1 -1 -1 -1 -1 -1 -1 -1 -1 -1 -0 -0 0 0 0 0 0 -0 -0 -0 0 0 0 0 0 0 0 1 2 3 3 3 4 4
2 2 2 1 0 -0 -1 -1 -1 -1 -1 -1 -1 -1 -1 -2 -2 -2 -1 -1 -0 -0 -0 0 0 -0 -0 -0 -0 0 0 0 0 1 1 2 3 5 6 7 7 7 7
4 4 4 3 3 2 1 -0 -1 -1 -1 -1 -1 -1 -1 -1 -1 -2 -2 -1 -1 -1 -0 -0 0 0 -0 -0 -0 0 1 1 2 3 4 6 8 10 12 12 12 12 12
5 5 5 5 5 4 3 2 1 -1 -1 -2 -2 -2 -2 -1 -1 -1 -1 -1 -1 -1 -0 -0 0 0 1 2 3 4 5 5 7 8 10 11 13 15 16 17 17 17 17
5 5 5 5 5 5 4 3 2 1 -1 -1 -1 -2 -2 -1 1 2 1 1 0 1 3 3 4 4 5 6 9 11 11 12 12 13 14 16 17 18 19 19 20 20 20
4 4 4 4 5 5 5 4 3 2 1 1 1 0 0 2 4 6 6 6 5 6 9 11 11 11 11 13 14 16 17 17 17 17 17 18 19 20 20 20 20 20 20
5 4 4 4 5 5 5 5 5 5 5 5 5 5 5 6 8 11 12 12 11 12 13 15 15 15 15 16 17 18 19 19 19 19 19 19 20 20 21 21 21 21 20
5 5 5 5 5 5 5 6 7 9 10 10 10 11 11 12 13 14 15 16 16 16 15 15 16 16 16 17 18 18 19 20 20 21 21 21 21 22 22 22 23 23 22
6 6 6 6 6 7 7 7 8 11 12 14 15 15 16 16 17 17 17 17 17 17 16 16 16 17 17 18 18 19 19 21 22 22 22 23 23 23 24 24 24 24 24
8 8 8 8 9 9 9 10 10 11 13 15 16 18 18 18 18 18 18 17 17 17 17 17 18 18 19 19 20 20 21 22 23 24 24 24 25 25 24 24 24 24 25
11 11 11 12 12 12 12 13 13 13 13 14 16 17 18 18 18 18 18 17 17 18 18 19 19 20 21 22 22 23 24 24 25 25 25 26 26 25 25 25 25 25 25
13 13 13 13 14 14 14 14 14 14 14 14 15 17 18 17 17 17 18 18 18 19 20 21 22 23 23 24 25 25 25 26 26 26 26 26 26 26 26 26 26 26 26
14 14 14 14 14 14 14 14 14 15 15 15 16 17 18 18 17 18 19 20 21 22 23 23 24 25 25 26 26 26 26 26 26 26 26 26 26 26 26 26 26 26 26
14 14 14 14 14 14 15 15 15 16 16 16 17 18 19 19 19 20 21 22 23 24 25 25 25 26 26 26 26 26 26 26 26 26 26 26 26 26 26 26 26 26 26
15 15 15 14 15 15 15 16 16 17 18 18 19 20 21 21 22 22 23 24 25 26 26 26 26 26 27 27 27 27 26 26 27 27 27 26 26 26 26 25 25 24 24
16 16 16 16 16 17 17 18 18 19 20 20 21 22 23 23 24 24 25 25 26 26 26 26 26 26 27 27 27 27 27 27 27 27 26 26 25 25 24 23 23 22 22
18 18 18 18 19 19 19 20 20 21 21 22 22 23 24 24 24 24 25 25 25 25 26 26 26 26 26 26 27 27 27 27 26 26 25 24 23 22 22 21 21 20 20
19 19 20 20 20 20 21 21 21 22 22 22 23 23 24 24 24 24 25 25 25 25 25 26 26 26 26 26 26 26 26 25 25 24 23 22 22 21 21 20 19 19 18